This is the latest recevied weather packets stored in our database for station/object W3BRL. If no packets are shown the sender has not sent any weather packets the latest 10 day(s).
| Time | Temp. | Humidity | Pressure | Rain* | Wind** | Luminosity | Snow |
|---|---|---|---|---|---|---|---|
| 1777986119 | 19.44° C | 55% | 1007.1 hPa | 0 mm | - | 410 W/m² | - |
| 1777985815 | 19.44° C | 56% | 1006.9 hPa | 0 mm | - | 372 W/m² | - |
| 1777985512 | 18.89° C | 56% | 1006.9 hPa | 0 mm | - | 355 W/m² | - |
| 1777985209 | 18.89° C | 57% | 1006.9 hPa | 0 mm | - | 328 W/m² | - |
| 1777984905 | 18.33° C | 58% | 1006.8 hPa | 0 mm | - | 315 W/m² | - |
| 1777984601 | 18.33° C | 58% | 1006.9 hPa | 0 mm | - | 297 W/m² | - |
| 1777984298 | 18.33° C | 59% | 1007.3 hPa | 0 mm | - | 153 W/m² | - |
| 1777983994 | 18.33° C | 59% | 1007.2 hPa | 0 mm | - | 145 W/m² | - |
| 1777983692 | 18.33° C | 59% | 1007.3 hPa | 0 mm | - | 126 W/m² | - |
| 1777983388 | 18.33° C | 59% | 1007.2 hPa | 0 mm | - | 270 W/m² | - |
| 1777983085 | 18.33° C | 58% | 1006.9 hPa | 0 mm | - | 195 W/m² | - |
| 1777982782 | 18.33° C | 59% | 1007.1 hPa | 0 mm | - | 273 W/m² | - |
| 1777982478 | 17.78° C | 59% | 1007.2 hPa | 0 mm | - | 230 W/m² | - |
| 1777982178 | 17.78° C | 60% | 1007.3 hPa | 0 mm | - | 197 W/m² | - |
| 1777981876 | 17.78° C | 61% | 1007.3 hPa | 0 mm | - | 203 W/m² | - |
| 1777981572 | 17.22° C | 62% | 1007.2 hPa | 0 mm | - | 177 W/m² | - |
| 1777981269 | 17.22° C | 62% | 1007.1 hPa | 0 mm | - | 100 W/m² | - |
| 1777980965 | 17.22° C | 63% | 1007.4 hPa | 0 mm | - | 135 W/m² | - |
| 1777980661 | 17.22° C | 62% | 1007.1 hPa | 0 mm | - | 113 W/m² | - |
| 1777980358 | 17.22° C | 63% | 1007.3 hPa | 0 mm | - | 99 W/m² | - |
| 1777980056 | 16.67° C | 63% | 1006.8 hPa | 0 mm | - | 81 W/m² | - |
| 1777979750 | 16.67° C | 62% | 1007.1 hPa | 0 mm | - | 65 W/m² | - |
| 1777979446 | 16.67° C | 62% | 1006.8 hPa | 0 mm | - | 55 W/m² | - |
| 1777979143 | 16.67° C | 63% | 1006.8 hPa | 0 mm | - | 49 W/m² | - |
| 1777978840 | 16.67° C | 63% | 1006.7 hPa | 0 mm | - | 44 W/m² | - |
* Rain latest hour (hover to see other rain measurements)
** Current wind speed in m/s (hover to see current wind gust speed)